Probability
0 0 0 0 0 0 0 0 0 0 0 0 0 0 0 0 0 0 0 0 0 0 0 0 0 0 0 0 0 0 0 0 0 0 0 0 0 0 0 0 0 0 0
0 0 0 0 0 0 0 0 0 0 0 0 0 0 0 0 0 0 0 0 0 0 0 0 0 0 0 0 0 0 0 0 0 0 0 0 0 0 0 0 0 0 0
0 0 0 0 0 0 0 0 0 0 0 0 0 0 0 0 0 0 0 0 0 0 0 0 0 0 0 0 0 0 0 0 0 0 0 0 0 0 0 0 0 0 0
0 0 0 0 0 0 0 0 0 0 0 0 0 0 0 0 0 0 0 0 0 0 0 0 0 0 0 0 0 0 0 0 0 0 0 0 0 0 0 0 0 0 0
0 0 0 0 0 0 0 0 0 0 0 0 0 0 0 0 0 0 0 0 0 0 0 0 0 0 0 0 0 0 0 0 0 0 0 0 0 0 0 0 0 0 0
0 0 0 0 0 0 0 0 0 0 0 0 0 0 0 0 0 0 0 0 0 0 0 0 0 0 0 0 0 0 0 0 0 0 0 0 0 0 0 0 0 0 0
0 0 0 0 0 0 0 0 0 0 0 0 0 0 0 0 0 0 0 0 0 0 0 0 0 0 0 0 0 0 0 0 0 0 0 0 0 0 0 0 0 0 0
0 0 0 0 0 0 0 0 0 0 0 0 0 0 0 0 0 0 0 0 0 0 0 0 0 0 0 0 0 0 0 0 0 0 0 0 0 0 0 0 0 0 0
0 0 0 0 0 0 0 0 0 0 0 0 0 0 0 0 0 0 0 0 0 0 0 0 0 0 0 0 0 0 0 0 0 0 0 0 0 0 0 0 0 0 0
0 0 0 0 0 0 0 0 0 0 0 0 0 0 0 0 0 0 0 0 0 0 0 0 0 0 0 0 0 0 0 0 0 0 0 0 0 0 0 0 0 0 0
0 0 0 0 0 0 0 0 0 0 0 0 0 0 0 0 0 0 0 0 0 0 0 0 0 0 0 0 0 0 0 0 0 0 0 0 0 0 0 0 0 0 0
0 0 0 0 0 0 0 0 0 0 0 0 0 0 0 0 0 0 0 0 0 0 0 0 0 0 0 0 0 0 0 0 0 0 0 0 0 0 0 0 0 0 0
0 0 0 0 0 0 0 0 0 0 0 0 0 0 0 0 0 0 0 0 0 0 0 0 0 0 0 0 0 0 0 0 0 0 0 0 0 0 0 0 0 0 0
0 0 0 0 0 0 0 0 0 0 0 0 0 0 0 0 0 0 0 0 0 0 0 0 0 0 0 0 0 0 0 0 0 0 0 0 0 0 0 0 0 0 0
0 0 0 0 0 0 0 0 0 0 0 0 0 0 0 0 0 0 0 0 0 0 0 0 0 0 0 0 0 0 0 0 0 0 0 0 0 0 0 0 0 0 0
0 0 0 0 0 0 0 0 0 0 0 0 0 0 0 0 0 0 0 0 0 0 0 0 0 0 0 0 0 0 0 0 0 0 0 0 0 0 0 0 0 0 0
0 0 0 0 0 0 0 0 0 0 0 0 0 0 0 0 0 0 0 0 0 0 0 0 0 0 0 0 0 0 0 0 0 0 0 0 0 0 0 0 0 0 0
0 0 0 0 0 0 0 0 0 0 0 0 0 0 0 0 0 0 0 0 0 0 0 0 0 0 0 0 0 0 0 0 0 0 0 0 0 0 0 0 0 0 0
0 0 0 0 0 0 0 0 0 0 0 0 0 0 0 0 0 0 0 0 0 0 0 0 0 0 0 0 0 0 0 0 0 0 0 0 0 0 0 0 0 0 0
0 0 0 0 0 0 0 0 0 0 0 0 0 0 0 0 0 0 0 0 0 0 0 0 0 0 0 0 0 0 0 0 0 0 0 0 0 0 0 0 0 0 0
0 0 0 0 0 0 0 0 0 0 0 0 0 0 0 0 0 0 0 0 0 0 0 0 0 0 0 0 0 0 0 0 0 0 0 0 0 0 0 0 0 0 0
0 0 0 0 0 0 0 0 0 0 0 0 0 0 0 0 0 0 0 0 0 0 0 0 0 0 0 0 0 0 0 0 0 0 0 0 0 0 0 0 0 0 0
0 0 0 0 0 0 0 0 0 0 0 0 0 0 0 0 0 0 0 0 0 0 0 0 0 0 0 0 0 0 0 0 0 0 0 0 0 0 0 0 0 0 0
0 0 0 0 0 0 0 0 0 0 0 0 0 0 0 0 0 0 0 0 0 0 0 0 0 0 0 0 0 0 0 0 0 0 0 0 0 0 0 0 0 0 0
0 0 0 0 0 0 0 0 0 0 0 0 0 0 0 0 0 0 0 0 0 0 0 0 0 0 0 0 0 0 0 0 0 0 0 0 0 0 0 0 0 0 0
0 0 0 0 0 0 0 0 0 0 0 0 0 0 0 0 0 0 0 0 0 0 0 0 0 0 0 0 0 0 0 0 0 0 0 0 0 0 0 0 0 0 0
Wind_Speed
1 1 1 1 1 1 1 1 1 1 0 0 1 1 1 2 1 1 2 2 2 2 2 2 3 2 2 2 2 2 2 2 4 4 3 2 2 3 3 3 3 3 4
0 1 1 1 1 1 1 1 1 1 1 1 1 1 2 2 2 2 3 3 3 3 3 3 3 2 3 2 2 3 3 3 4 5 3 3 3 3 3 3 4 3 3
0 0 1 1 1 2 2 2 2 2 1 1 1 2 3 3 3 3 3 3 4 4 4 4 4 3 4 3 3 3 3 3 3 4 4 3 2 2 2 3 3 3 4
0 0 1 1 1 2 2 2 2 2 2 2 2 3 3 3 3 4 4 4 4 4 4 4 4 4 5 4 4 4 3 3 3 3 4 3 3 2 2 3 4 3 3
0 1 1 2 2 2 2 3 2 2 2 2 2 3 3 3 3 4 4 4 4 3 3 4 4 6 6 5 4 3 3 3 3 3 4 3 3 2 3 2 4 4 4
1 2 2 2 2 2 2 3 3 3 2 2 2 3 3 4 6 7 5 3 3 4 4 4 4 5 6 7 8 8 6 5 4 4 4 5 5 4 3 3 3 3 4
2 2 2 2 2 3 3 3 3 3 3 3 3 3 4 5 8 8 7 4 4 4 4 4 4 4 5 4 6 8 7 9 8 5 6 6 5 5 4 4 4 4 5
2 2 2 2 3 3 3 3 3 3 3 3 3 3 4 6 8 8 7 4 4 4 5 5 5 4 4 5 4 4 4 5 6 5 5 6 5 4 4 4 4 4 3
3 3 3 3 3 3 3 3 3 3 4 4 3 4 4 6 8 9 7 3 3 4 4 4 4 4 7 7 4 4 5 5 6 7 7 7 7 7 4 2 2 2 4
4 4 3 3 3 4 4 4 3 3 4 4 4 4 4 5 8 9 7 3 3 3 3 4 6 6 8 7 4 4 5 5 3 3 4 4 4 4 5 3 3 3 3
3 3 3 3 4 4 4 3 3 4 4 4 4 4 5 6 7 8 7 3 3 3 3 3 4 8 8 8 6 4 6 5 2 2 3 2 2 2 2 2 3 3 4
2 3 3 3 3 3 3 3 3 3 4 4 4 4 4 4 6 7 8 7 5 4 4 3 4 8 8 8 6 6 6 4 1 2 2 2 2 2 2 2 3 3 4
2 3 3 3 3 3 3 3 3 3 3 4 3 4 4 3 4 8 8 8 7 4 4 6 7 7 6 5 6 6 3 1 1 2 3 3 3 3 3 2 2 2 3
3 3 3 3 3 3 3 3 3 3 3 3 4 4 4 4 3 4 3 4 5 4 3 5 6 6 4 5 4 2 1 2 2 3 3 3 2 2 2 2 2 2 2
3 4 3 3 3 3 3 3 4 4 4 4 4 4 4 5 6 8 5 3 3 3 3 2 1 1 2 2 2 2 2 2 2 2 2 3 3 2 2 2 2 2 2
3 3 3 3 3 3 3 4 6 6 8 9 8 7 6 8 10 9 9 8 7 6 3 2 2 2 2 2 2 2 2 2 2 2 3 3 3 3 3 2 2 2 3
4 4 3 3 3 3 3 4 4 4 6 7 8 8 8 9 9 9 8 7 6 3 2 2 2 2 2 2 2 3 3 3 3 2 3 3 3 3 3 2 2 2 3
4 5 4 3 3 3 4 3 3 3 4 4 5 8 9 9 8 8 7 4 3 2 2 3 3 3 3 3 3 3 3 2 2 2 2 3 3 3 3 3 3 3 3
4 3 3 3 3 4 3 3 3 3 3 4 3 4 7 7 7 6 4 2 3 3 3 3 3 3 3 3 3 3 3 3 3 3 3 3 3 3 3 3 3 4 3
3 6 5 3 3 3 3 3 3 3 3 3 4 4 3 3 2 3 2 2 3 3 3 3 3 3 3 3 3 3 3 3 3 3 3 3 3 3 3 3 3 3 3
3 4 6 3 3 3 3 3 3 3 3 4 4 5 6 3 3 3 3 3 3 3 3 3 3 3 3 3 3 3 4 3 3 3 3 3 3 3 3 3 3 3 3
3 3 2 3 3 3 3 3 3 3 4 4 4 4 6 3 3 3 3 3 3 3 3 3 3 3 3 3 3 3 4 4 4 3 3 3 3 3 3 2 3 2 2
2 2 2 2 2 4 4 3 3 3 3 4 3 3 3 3 3 3 4 4 3 3 3 3 3 3 3 3 3 3 4 4 4 4 4 4 3 3 3 3 3 3 3
2 2 2 2 2 2 3 3 3 3 3 3 3 3 3 3 4 4 4 3 3 3 3 3 3 4 5 4 3 3 4 4 4 3 4 4 3 3 3 3 3 3 3
2 2 2 2 2 2 3 3 3 3 3 3 3 3 3 3 4 4 3 3 3 3 4 3 3 4 5 5 5 4 6 7 6 4 3 3 3 3 3 3 3 3 3
2 2 2 2 2 2 3 3 3 3 3 3 3 3 3 3 3 3 3 3 3 3 3 3 4 4 5 5 6 7 8 7 7 6 3 2 3 3 3 3 4 3 4
Wind_Direction
27 19 17 357 7 20 11 331 306 284 279 261 273 261 253 247 226 216 235 220 219 233 238 234 246 250 246 254 251 239 240 235 257 277 272 282 278 274 291 291 286 280 285
355 11 2 356 3 356 333 325 323 287 272 264 266 264 260 256 239 224 235 231 230 232 232 233 247 250 247 248 245 243 240 237 245 270 280 278 274 274 281 288 294 296 286
309 345 356 355 351 334 320 315 312 295 283 280 263 259 261 258 250 243 235 232 234 237 233 230 238 236 247 248 245 243 242 252 250 261 274 276 279 281 290 291 288 285 290
171 314 315 311 304 307 314 308 295 292 281 273 260 258 259 258 249 244 237 231 235 238 237 234 234 231 240 242 245 240 240 247 253 258 269 276 275 275 268 280 295 288 287
233 293 288 295 298 306 313 306 300 301 291 281 276 275 270 261 248 242 233 232 232 237 240 240 242 249 254 253 251 241 240 247 251 257 267 275 269 264 260 258 276 290 283
243 263 277 290 295 295 298 302 301 299 291 284 278 272 271 272 272 267 259 230 230 236 246 249 252 251 259 269 270 264 254 247 247 249 262 259 260 255 258 256 265 285 284
248 264 273 275 281 286 293 301 295 292 285 277 276 271 270 275 280 272 267 246 231 240 244 248 260 261 267 261 269 273 268 268 262 253 251 253 254 248 247 255 253 259 263
248 257 260 262 269 278 282 286 289 290 284 275 275 271 272 281 288 284 280 257 240 241 241 238 244 251 257 260 255 259 257 261 264 259 249 252 256 250 239 245 253 268 271
246 251 252 251 261 266 270 276 282 285 283 274 271 269 271 283 292 290 286 254 247 250 250 246 247 247 264 272 263 259 267 268 273 271 268 267 270 267 261 249 250 268 276
252 254 252 251 255 257 261 268 272 274 279 279 279 272 268 273 285 289 286 253 249 254 256 255 259 264 267 273 260 251 263 269 272 279 277 277 274 266 267 248 235 252 271
258 261 259 255 257 256 262 267 271 278 284 278 276 277 272 275 284 287 285 265 245 251 257 258 261 271 273 277 277 258 268 280 269 267 279 283 282 270 264 254 240 238 248
251 258 261 261 265 265 258 270 272 273 281 279 277 283 277 279 286 285 286 280 278 255 255 255 262 273 278 282 284 282 289 302 278 265 267 269 266 264 265 261 258 254 250
247 256 261 269 268 264 258 265 273 268 268 274 272 277 283 281 283 291 291 291 288 277 262 271 279 282 286 282 286 289 296 290 263 265 263 266 264 264 269 274 279 276 282
241 253 256 256 263 261 261 257 256 260 263 267 272 275 281 280 274 271 268 274 279 279 277 277 281 284 290 289 288 294 289 259 263 259 267 271 270 264 264 264 270 282 287
242 250 257 255 256 262 260 252 254 247 250 260 261 261 271 276 279 288 290 274 265 263 274 267 264 271 275 277 278 277 275 283 287 278 272 275 273 268 268 261 260 266 263
242 249 249 253 255 257 266 275 267 266 277 279 280 278 274 279 293 295 296 296 295 290 284 265 262 261 268 276 280 283 275 271 271 271 265 263 265 265 268 265 259 255 261
235 245 249 249 251 258 260 265 281 291 288 290 290 290 290 294 294 294 295 294 288 280 264 255 256 255 261 265 265 268 273 270 267 263 264 265 267 266 263 261 255 256 260
238 250 252 247 246 250 254 256 261 276 291 293 297 297 297 295 296 296 296 297 277 262 255 252 253 254 254 255 258 265 270 270 266 263 262 261 261 264 265 263 261 262 262
237 246 248 245 243 243 247 249 254 263 272 284 295 297 303 302 297 295 295 265 258 259 258 254 251 250 250 249 253 257 260 263 264 262 258 255 254 257 260 260 261 269 272
241 253 253 248 242 241 241 242 248 255 264 272 277 281 294 298 286 285 279 265 256 258 259 256 253 251 249 248 251 255 259 261 262 260 257 254 251 250 251 254 255 259 262
241 251 254 248 234 235 236 238 241 247 255 263 268 274 285 273 268 271 271 266 259 257 257 256 253 250 248 247 247 249 252 255 256 259 259 256 253 253 250 248 250 252 257
237 238 233 234 235 237 240 237 237 241 249 259 268 275 288 289 274 271 268 267 264 257 252 251 253 250 246 246 247 247 251 254 254 255 256 254 251 250 248 247 252 253 253
232 233 238 242 241 253 257 243 238 244 250 256 264 272 276 274 271 269 269 268 265 261 256 250 253 257 256 253 247 243 247 251 251 249 251 253 251 249 245 248 249 251 252
218 223 232 241 244 244 248 249 246 248 252 256 260 264 266 265 266 266 265 263 263 263 259 254 252 255 261 264 260 256 255 258 257 248 243 244 247 252 248 245 245 245 247
216 218 227 235 243 248 252 256 255 253 254 258 261 261 262 263 265 264 264 260 262 263 266 266 261 259 263 265 265 262 265 271 273 266 243 230 234 240 239 240 241 243 246
226 227 232 237 244 248 250 254 258 259 260 261 261 258 258 260 262 263 264 262 266 267 267 268 266 269 272 272 268 269 274 275 274 271 254 226 227 237 237 238 238 238 238